Regional Weather Roundup
Issued by NWS San Diego, CA

Home | Current Version | Previous Version | Text Only | Print | Product List | Glossary On
Versions: 1 2 3 4 5 6 7 8 9 10 11 12 13 14 15 16 17 18 19 20 21 22 23 24 25 26 27 28 29 30 31 32 33 34 35 36 37 38 39 40 41 42 43 44 45 46 47 48 49 50
000
ASUS46 KSGX 171011
RWRSGX

SAN DIEGO HOURLY WEATHER ROUNDUP
NATIONAL WEATHER SERVICE SAN DIEGO CA
300 AM PDT SAT AUG 17 2019

NOTE: "FAIR" INDICATES FEW OR NO CLOUDS BELOW 12,000 FEET WITH NO
SIGNIFICANT WEATHER AND/OR OBSTRUCTIONS TO VISIBILITY.

CAZ042-043-060-061-PZZ750-775-171100-

GREATER SAN DIEGO AREA

CITY           SKY/WX    TMP DP  RH WIND       PRES   REMARKS
SAN DIEGO AP   CLOUDY    65  59  81 S7        29.93F
NATIONAL CITY    N/A    N/A N/A N/A CALM      29.92F
CHULA VISTA      N/A     65  60  84 CALM      29.82F
BROWN FIELD    CLOUDY    64  57  78 CALM      29.91F
MIRAMAR MCAS   CLOUDY    67  58  72 CALM      29.91F
MONTGOMERY FLD CLOUDY    63  58  83 W3        29.92S
GILLESPIE FLD  CLOUDY    63  59  88 CALM      29.91S

$$

NORTH SAN DIEGO COUNTY

CITY           SKY/WX    TMP DP  RH WIND       PRES   REMARKS
CAMP PENDLETON CLOUDY    66  58  75 SW3       29.90F
OCEANSIDE AP   CLOUDY    66  59  78 E3        29.90F
OCEANSIDE HBR    N/A     65  62  88 CALM      29.93S
VISTA            N/A     65  59  82 CALM      29.88F
CARLSBAD       CLOUDY    66  59  78 CALM      29.90F
DEL MAR          N/A     64  60  87 W2        29.92S
LA JOLLA SCRIP   N/A     63  59  86 CALM      29.91S
FALLBROOK      CLOUDY    63  59  88 CALM      29.92F
ESCONDIDO        N/A     64  60  86 CALM      29.90S
SAN MARCOS       N/A     63  59  88 CALM      29.93F
POWAY            N/A     63  58  83 CALM      29.92S

$$

EAST SAN DIEGO COUNTY

CITY           SKY/WX    TMP DP  RH WIND       PRES   REMARKS
RAMONA         FOG       58  57  97 S3        29.92F VSB 1/2
SANTEE LAKES     N/A     64  59  85 SE1       29.88F
LA MESA          N/A     62  58  88 CALM      29.85F
JAMUL            N/A     59  57  91 CALM      29.90S
DESCANSO N       N/A     58  21  24 NE7       29.80F
MT. LAGUNA OBS   N/A     61 -10   5 SW9       29.72F
CAMPO            N/A     49  33  54 NE6       29.93F

$$

ORANGE COUNTY AND THE LOS ANGELES BASIN

CITY           SKY/WX    TMP DP  RH WIND       PRES   REMARKS
JOHN WAYNE AP  CLOUDY    68  57  68 SE6       29.90F
LAGUNA BEACH     N/A     67  61  81 S1        29.89F
LAKE FOREST FR   N/A     61  56  81 CALM      29.77F
HUNTINGTON BCH   N/A     65  60  83 S3        29.91S
LOS ALAMITOS   CLOUDY    65  52  62 S6        29.90F
FULLERTON      CLOUDY    66  57  72 CALM      29.90S
LONG BEACH     CLOUDY    67  57  70 S7        29.91S
L.A. AP        CLOUDY    67  58  72 SE5       29.90F
L.A. DOWNTOWN  CLOUDY    68  59  73 CALM      29.90S

$$

THE INLAND EMPIRE

CITY           SKY/WX    TMP DP  RH WIND       PRES   REMARKS
CORONA         CLEAR     59  57  93 CALM      29.91F
CHINO          MOCLDY    61  58  90 W3        29.92S
ONTARIO        CLOUDY    62  59  90 W7        29.91S
SAN BERNARDINO FAIR      64  57  79 W6        29.91F
RIVERSIDE AP   CLEAR     62  58  86 W5        29.91S
MORENO VALLEY    N/A     62  57  83 CALM      28.02F
MARCH ARB      CLEAR     59  59 100 W3        29.91F
HORSETHIEF CYN   N/A     60  56  84 CALM      29.86F
PERRIS           N/A     62  59  88 SE1       29.94S
HEMET EAST       N/A     62  35  35 CALM      29.87S
FRENCH VALLEY  CLOUDY    59  59 100 CALM      29.93S
TEMECULA         N/A     62  60  95 CALM      29.93S

$$

SAN BERNARDINO AND RIVERSIDE COUNTY MOUNTAINS

CITY           SKY/WX    TMP DP  RH WIND       PRES   REMARKS
BIG BEAR AP    CLEAR     41  18  38 CALM      30.18F
ANGELUS OAKS     N/A     58  15  18 CALM      29.73S

$$

SOUTHERN DESERT INCLUDING THE COACHELLA VALLEY

CITY           SKY/WX    TMP DP  RH WIND       PRES   REMARKS
PALM SPRINGS   CLEAR     79  45  29 CALM      29.73S
THOUSAND PALMS   N/A     87  40  18 NW15      29.66S
PALM DESERT      N/A     76  52  42 CALM      30.99S
THERMAL        CLEAR     90  37  15 NW9       29.66S
BORREGO AP     FAIR      70  21  16 W7        29.73F
BLYTHE         CLEAR     88  37  16 S15       29.71S
IMPERIAL AP    CLEAR     82  29  14 CALM      29.70S
EL CENTRO NAS  CLEAR     84  12   6 S6        29.71F
YUMA AZ        CLEAR     85  71  63 SE15      29.72S

$$

UPPER DESERT

CITY           SKY/WX    TMP DP  RH WIND       PRES   REMARKS
HESPERIA         N/A     70  44  38 W7        29.76F
APPLE VALLEY     N/A     71  45  39 SW3       29.80F
PALMDALE       CLEAR     79  31  17 SW16      29.88F
LANCASTER      CLEAR     76  37  24 SW16      29.87F
EDWARDS AFB    CLEAR     73  37  27 SW16      29.83F
DAGGETT        CLEAR     87  37  17 SW18      29.80F
29 PALMS N     CLEAR     83  30  14 W13       29.88F
NEEDLES        CLEAR     92  31  11 S5        29.71S

$$

REGIONAL REPORTS

CITY           SKY/WX    TMP DP  RH WIND       PRES   REMARKS
SANTA BARBARA  CLOUDY    62  59  90 CALM      29.89F
SANDBERG         N/A     66  30  26 S9        30.04F
LAS VEGAS NV   CLEAR     90  34  13 S8        29.73F
PHOENIX AZ     CLEAR     91  56  30 SE6       29.77S
TIJUANA        CLOUDY    64  59  82 CALM      29.94F
ENSENADA NW      N/A     65  32  29 CALM      29.87F

$$

OFFSHORE ISLANDS

CITY           SKY/WX    TMP DP  RH WIND       PRES   REMARKS
CATALINA ARPT  CLOUDY    58  56  93 E3        29.93F
SAN CLEMENTE I CLOUDY    60  32  34 S7        29.92F
SAN NICOLAS IS CLOUDY   N/A N/A N/A W3        29.90F HAZE

$$

MARINE AND OFFSHORE BUOY REPORTS

STATION/POSITION SKY/WX   TEMP    WIND        PRES    VSBY  SWELL
                          AIR SEA DIR/SP/G                  HT/PER/DIR
                          (F)     (DEG/KT/KT) (MB)    (MI)  (FT/S/D)
TANNER BANKS               61 64  310/  6/  8 1012.7F         5/300/ 9
S CLEMENTE BASIN           63 66  210/  4/  8 1012.7F         3/190/15
SAN NICOLAS IS.               61                N/A           3/190/13
SO. S. ROSA ISLA           59 61  330/  4/  8 1013.2F         5/210/15
W. S. BARBARA CH                                N/A
M. S. BARBARA CH           59 63  210/  2/  2 1012.8F         2/230/14
S. MONICA BASIN            62     150/  6/  8 1012.8F         3/210/14
S PEDRO CHANNEL               69                N/A           2/180/12
OCEANSIDE OFFSHR              70                N/A           2/210/15
TORREY PINES OTR              71                N/A           2/210/14
SAN DIEGO BAY                 71              1012.6F
IMPERIAL BEACH                63                N/A           2/240/14
POINT LOMA SOUTH              70                N/A           2/200/14

$$




USA.gov is the U.S. government's official web portal to all federal, state and local government web resources and services.